Location: Cucq
(50.4773°N, 1.6202°E)
Time: 23:16:13
(UTC+00:00)

Cosmos 2082 - Pass Details

Date: 07 August 2020
Orbit: 834 x 855 km, 71.0° (Epoch: 23 September)

Event Time Altitude Azimuth Distance (km) Brightness Sun altitude
Exits shadow 01:52:42 23° 166° (SSE) 1,692 4.9 -18.7°
Maximum altitude 01:55:42 43° 109° (ESE) 1,158 4.5 -18.5°
Drops below altitude 10° 02:00:58 10° 40° (NE) 2,454 7.4 -18.1°
Sets 02:03:31 0° 34° (NNE) 3,393 8.6 -17.8°
